| time (UTC) | temp C | wind direction | speed KPH | gust KPH | rain 1hr cm | rain 24hr cm | rain mn cm | humidity % | barometer mb |
| 20260509192154 | 9 | 0 | 0.0 | 4.8 | 0.00 | 0.00 | 0.00 | 49 | 1017.8 |
| 20260509191154 | 8 | 191 | 3.2 | 9.7 | 0.00 | 0.00 | 0.00 | 51 | 1017.9 |
| 20260509190154 | 8 | 247 | 1.6 | 8.0 | 0.00 | 0.00 | 0.00 | 55 | 1018.4 |
| 20260509185154 | 8 | 161 | 1.6 | 8.0 | 0.00 | 0.00 | 0.00 | 51 | 1018.4 |
| 20260509184154 | 7 | 0 | 0.0 | 8.0 | 0.00 | 0.00 | 0.00 | 58 | 1018.2 |
| 20260509183154 | 7 | 142 | 3.2 | 9.7 | 0.00 | 0.00 | 0.00 | 55 | 1018.2 |
| 20260509182154 | 7 | 299 | 1.6 | 8.0 | 0.00 | 0.00 | 0.00 | 59 | 1018.2 |
| 20260509181228 | 6 | 78 | 3.2 | 8.0 | 0.00 | 0.00 | 0.00 | 57 | 1018.0 |
| 20260509181154 | 6 | 78 | 3.2 | 8.0 | 0.00 | 0.00 | 0.00 | 57 | 1018.0 |
| 20260509180154 | 6 | 0 | 0.0 | 6.4 | 0.00 | 0.00 | 0.00 | 57 | 1017.9 |
| 20260509175154 | 6 | 120 | 3.2 | 8.0 | 0.00 | 0.00 | 0.00 | 59 | 1017.8 |
| 20260509174154 | 6 | 68 | 1.6 | 8.0 | 0.00 | 0.00 | 0.00 | 59 | 1017.6 |
| 20260509173154 | 6 | 27 | 1.6 | 9.7 | 0.00 | 0.00 | 0.00 | 62 | 1017.5 |
| 20260509172154 | 6 | 65 | 4.8 | 9.7 | 0.00 | 0.00 | 0.00 | 1017.4 | |
| 20260509171154 | 6 | 0 | 0.0 | 9.7 | 0.00 | 0.00 | 0.00 | 62 | 1017.4 |
| 20260509170154 | 6 | 334 | 1.6 | 8.0 | 0.00 | 0.00 | 0.00 | 56 | 1017.5 |
| 20260509165153 | 6 | 297 | 1.6 | 6.4 | 0.00 | 0.00 | 0.00 | 52 | 1017.4 |
| 20260509164154 | 6 | 41 | 3.2 | 6.4 | 0.00 | 0.00 | 0.00 | 43 | 1016.7 |
| 20260509163154 | 6 | 311 | 1.6 | 6.4 | 0.00 | 0.00 | 0.00 | 38 | 1016.5 |
| 20260509162153 | 5 | 321 | 3.2 | 9.7 | 0.00 | 0.00 | 0.00 | 37 | 1016.4 |
| 20260509161153 | 5 | 329 | 6.4 | 11.3 | 0.00 | 0.00 | 0.00 | 36 | 1016.3 |
| 20260509160153 | 5 | 321 | 3.2 | 12.9 | 0.00 | 0.00 | 0.00 | 36 | 1016.3 |
| 20260509155153 | 5 | 325 | 4.8 | 12.9 | 0.00 | 0.00 | 0.00 | 37 | 1016.0 |
| 20260509154153 | 5 | 296 | 6.4 | 14.5 | 0.00 | 0.00 | 0.00 | 36 | 1016.0 |
| 20260509153153 | 6 | 305 | 6.4 | 14.5 | 0.00 | 0.00 | 0.00 | 36 | 1015.9 |
| 20260509152153 | 5 | 311 | 3.2 | 16.1 | 0.00 | 0.00 | 0.00 | 36 | 1015.9 |
| 20260509151153 | 5 | 299 | 8.0 | 17.7 | 0.00 | 0.00 | 0.00 | 36 | 1015.8 |
| 20260509150153 | 5 | 300 | 8.0 | 17.7 | 0.00 | 0.00 | 0.00 | 37 | 1015.7 |
| 20260509145153 | 4 | 291 | 9.7 | 19.3 | 0.00 | 0.00 | 0.00 | 37 | 1015.6 |
| 20260509144153 | 4 | 282 | 8.0 | 17.7 | 0.00 | 0.00 | 0.00 | 38 | 1015.6 |
| 20260509143153 | 4 | 283 | 12.9 | 20.9 | 0.00 | 0.00 | 0.00 | 37 | 1015.5 |
| 20260509142153 | 4 | 275 | 12.9 | 20.9 | 0.00 | 0.00 | 0.00 | 39 | 1015.6 |
| 20260509141153 | 3 | 274 | 11.3 | 22.5 | 0.00 | 0.00 | 0.00 | 37 | 1015.6 |
| 20260509140153 | 3 | 279 | 9.7 | 24.1 | 0.00 | 0.00 | 0.00 | 36 | 1015.5 |
| 20260509135153 | 3 | 286 | 9.7 | 17.7 | 0.00 | 0.00 | 0.00 | 38 | 1015.4 |
| 20260509134153 | 3 | 286 | 8.0 | 19.3 | 0.00 | 0.00 | 0.00 | 38 | 1015.4 |
| 20260509133153 | 3 | 288 | 9.7 | 22.5 | 0.00 | 0.00 | 0.00 | 37 | 1015.2 |
| 20260509132153 | 3 | 283 | 9.7 | 16.1 | 0.00 | 0.00 | 0.00 | 37 | 1015.7 |
| 20260509131153 | 3 | 276 | 8.0 | 22.5 | 0.00 | 0.00 | 0.00 | 38 | 1015.6 |
| 20260509130153 | 3 | 272 | 9.7 | 16.1 | 0.00 | 0.00 | 0.00 | 38 | 1015.5 |
| 20260509125153 | 3 | 264 | 9.7 | 16.1 | 0.00 | 0.00 | 0.00 | 39 | 1015.4 |
| 20260509124153 | 2 | 270 | 6.4 | 14.5 | 0.00 | 0.00 | 0.00 | 41 | 1015.3 |
| 20260509123153 | 2 | 270 | 8.0 | 16.1 | 0.00 | 0.00 | 0.00 | 41 | 1015.2 |
| 20260509122153 | 2 | 273 | 8.0 | 19.3 | 0.00 | 0.00 | 0.00 | 41 | 1015.2 |
| 20260509121153 | 2 | 274 | 12.9 | 20.9 | 0.00 | 0.00 | 0.00 | 40 | 1015.1 |
| 20260509120153 | 3 | 265 | 11.3 | 17.7 | 0.00 | 0.00 | 0.00 | 40 | 1015.0 |
| 20260509115153 | 2 | 262 | 8.0 | 17.7 | 0.00 | 0.00 | 0.00 | 41 | 1014.8 |
| 20260509114153 | 2 | 258 | 8.0 | 17.7 | 0.00 | 0.00 | 0.00 | 42 | 1014.7 |
| 20260509113153 | 2 | 260 | 11.3 | 22.5 | 0.00 | 0.00 | 0.00 | 43 | 1014.6 |
| 20260509112153 | 2 | 249 | 9.7 | 20.9 | 0.00 | 0.00 | 0.00 | 43 | 1014.5 |
| 20260509111153 | 2 | 260 | 11.3 | 19.3 | 0.00 | 0.00 | 0.00 | 43 | 1014.5 |
| 20260509110153 | 2 | 258 | 12.9 | 22.5 | 0.00 | 0.00 | 0.00 | 44 | 1014.5 |
| 20260509105153 | 2 | 256 | 14.5 | 25.7 | 0.00 | 0.00 | 0.00 | 45 | 1014.5 |
| 20260509104153 | 2 | 255 | 16.1 | 27.4 | 0.00 | 0.00 | 0.00 | 48 | 1014.4 |
| 20260509103153 | 2 | 242 | 14.5 | 20.9 | 0.00 | 0.00 | 0.00 | 50 | 1014.7 |
| 20260509102153 | 2 | 262 | 12.9 | 20.9 | 0.00 | 0.00 | 0.00 | 51 | 1014.7 |
| 20260509101153 | 2 | 248 | 12.9 | 20.9 | 0.00 | 0.00 | 0.00 | 52 | 1014.5 |
| 20260509100153 | 2 | 249 | 14.5 | 17.7 | 0.00 | 0.00 | 0.00 | 53 | 1014.6 |
| 20260509095153 | 2 | 242 | 12.9 | 19.3 | 0.00 | 0.00 | 0.00 | 55 | 1015.2 |
| 20260509094153 | 2 | 265 | 9.7 | 19.3 | 0.00 | 0.00 | 0.00 | 54 | 1015.4 |
| 20260509093153 | 2 | 245 | 11.3 | 20.9 | 0.00 | 0.00 | 0.00 | 57 | 1015.3 |
| 20260509092233 | 2 | 262 | 6.4 | 14.5 | 0.00 | 0.00 | 0.00 | 59 | 1015.3 |
| 20260509092153 | 2 | 262 | 6.4 | 14.5 | 0.00 | 0.00 | 0.00 | 59 | 1015.3 |
| 20260509091153 | 2 | 242 | 8.0 | 16.1 | 0.00 | 0.00 | 0.00 | 57 | 1015.3 |
| 20260509090153 | 2 | 247 | 8.0 | 17.7 | 0.00 | 0.00 | 0.00 | 57 | 1015.2 |
| 20260509085153 | 2 | 236 | 6.4 | 17.7 | 0.00 | 0.00 | 0.00 | 60 | 1015.2 |
| 20260509084153 | 2 | 221 | 3.2 | 17.7 | 0.00 | 0.00 | 0.00 | 61 | 1015.0 |
| 20260509083154 | 2 | 229 | 3.2 | 12.9 | 0.00 | 0.00 | 0.00 | 61 | 1015.1 |
| 20260509082153 | 1 | 223 | 4.8 | 9.7 | 0.00 | 0.00 | 0.00 | 63 | 1015.0 |
| 20260509081153 | 1 | 285 | 3.2 | 6.4 | 0.00 | 0.00 | 0.00 | 70 | 1015.1 |
| 20260509080153 | 1 | 286 | 3.2 | 8.0 | 0.00 | 0.00 | 0.00 | 69 | 1015.3 |
| 20260509075153 | 1 | 286 | 1.6 | 6.4 | 0.00 | 0.00 | 0.00 | 67 | 1015.2 |
| 20260509074153 | 1 | 278 | 3.2 | 12.9 | 0.00 | 0.00 | 0.00 | 64 | 1015.3 |
| 20260509073153 | 1 | 256 | 4.8 | 9.7 | 0.00 | 0.00 | 0.00 | 65 | 1015.2 |
| 20260509072153 | 1 | 269 | 6.4 | 16.1 | 0.00 | 0.00 | 0.00 | 66 | 1015.1 |
| 20260509071153 | 1 | 310 | 1.6 | 9.7 | 0.00 | 0.00 | 0.00 | 69 | 1015.0 |
| 20260509070153 | 1 | 329 | 1.6 | 6.4 | 0.00 | 0.00 | 0.00 | 67 | 1015.0 |
| 20260509065153 | 1 | 308 | 1.6 | 3.2 | 0.00 | 0.00 | 0.00 | 69 | 1014.8 |
| 20260509064426 | 1 | 0 | 0.0 | 8.0 | 0.00 | 0.00 | 0.00 | 66 | 1015.1 |
| 20260509064153 | 1 | 0 | 0.0 | 8.0 | 0.00 | 0.00 | 0.00 | 66 | 1015.1 |
| 20260509063153 | 1 | 307 | 1.6 | 11.3 | 0.00 | 0.00 | 0.00 | 65 | 1014.9 |
| 20260509062153 | 2 | 270 | 1.6 | 8.0 | 0.00 | 0.00 | 0.00 | 1014.9 | |
| 20260509061153 | 2 | 273 | 4.8 | 8.0 | 0.00 | 0.00 | 0.00 | 64 | 1014.8 |
| 20260509060153 | 2 | 276 | 6.4 | 20.9 | 0.00 | 0.00 | 0.00 | 62 | 1014.7 |
| 20260509055251 | 2 | 266 | 8.0 | 17.7 | 0.00 | 0.00 | 0.00 | 65 | 1014.7 |
| 20260509055153 | 2 | 266 | 8.0 | 17.7 | 0.00 | 0.00 | 0.00 | 65 | 1014.7 |
| 20260509054153 | 2 | 302 | 4.8 | 12.9 | 0.00 | 0.00 | 0.00 | 64 | 1014.7 |
| 20260509053153 | 2 | 300 | 6.4 | 16.1 | 0.00 | 0.00 | 0.00 | 62 | 1014.8 |
| 20260509052153 | 2 | 286 | 3.2 | 27.4 | 0.00 | 0.00 | 0.00 | 60 | 1014.6 |
| 20260509051153 | 2 | 298 | 12.9 | 27.4 | 0.00 | 0.00 | 0.00 | 62 | 1014.4 |
| 20260509050153 | 3 | 289 | 9.7 | 29.0 | 0.00 | 0.00 | 0.00 | 60 | 1014.5 |
| 20260509045153 | 2 | 288 | 12.9 | 27.4 | 0.00 | 0.00 | 0.00 | 61 | 1014.5 |
| 20260509044153 | 2 | 283 | 9.7 | 30.6 | 0.00 | 0.00 | 0.00 | 60 | 1014.7 |
| 20260509043153 | 3 | 263 | 11.3 | 27.4 | 0.00 | 0.00 | 0.00 | 58 | 1014.5 |
| 20260509042153 | 3 | 257 | 9.7 | 24.1 | 0.00 | 0.00 | 0.00 | 56 | 1014.6 |
| 20260509041153 | 3 | 274 | 17.7 | 29.0 | 0.00 | 0.00 | 0.00 | 56 | 1014.5 |
| 20260509040153 | 3 | 256 | 11.3 | 35.4 | 0.00 | 0.00 | 0.00 | 54 | 1014.5 |
| 20260509035153 | 3 | 273 | 16.1 | 41.8 | 0.00 | 0.00 | 0.00 | 53 | 1015.2 |
| 20260509034153 | 3 | 265 | 14.5 | 33.8 | 0.00 | 0.00 | 0.00 | 1015.1 | |
| 20260509033153 | 3 | 259 | 14.5 | 37.0 | 0.00 | 0.00 | 0.00 | 1015.1 | |
| 20260509032153 | 4 | 285 | 16.1 | 29.0 | 0.00 | 0.00 | 0.00 | 49 | 1014.9 |
| 20260509031153 | 5 | 266 | 12.9 | 24.1 | 0.00 | 0.00 | 0.00 | 50 | 1014.8 |
| 20260509030153 | 4 | 239 | 9.7 | 16.1 | 0.00 | 0.00 | 0.00 | 49 | 1014.8 |
| 20260509025153 | 5 | 264 | 9.7 | 19.3 | 0.00 | 0.00 | 0.00 | 48 | 1014.7 |
| 20260509024153 | 5 | 268 | 6.4 | 27.4 | 0.00 | 0.00 | 0.00 | 49 | 1014.6 |
| 20260509023153 | 6 | 264 | 9.7 | 14.5 | 0.00 | 0.00 | 0.00 | 49 | 1014.5 |
| 20260509022153 | 6 | 265 | 6.4 | 14.5 | 0.00 | 0.00 | 0.00 | 50 | 1014.4 |
| 20260509021241 | 6 | 287 | 9.7 | 16.1 | 0.00 | 0.00 | 0.00 | 48 | 1014.5 |
| 20260509021153 | 6 | 287 | 9.7 | 16.1 | 0.00 | 0.00 | 0.00 | 48 | 1014.5 |
| 20260509020153 | 7 | 304 | 4.8 | 20.9 | 0.00 | 0.00 | 0.00 | 50 | 1014.4 |
| 20260509015153 | 7 | 322 | 3.2 | 14.5 | 0.00 | 0.00 | 0.00 | 47 | 1014.3 |
| 20260509014233 | 7 | 282 | 8.0 | 20.9 | 0.00 | 0.00 | 0.00 | 51 | 1014.4 |
| 20260509014153 | 7 | 282 | 8.0 | 20.9 | 0.00 | 0.00 | 0.00 | 51 | 1014.4 |
| 20260509013153 | 7 | 294 | 14.5 | 22.5 | 0.00 | 0.00 | 0.00 | 50 | 1014.4 |
| 20260509012153 | 7 | 263 | 8.0 | 24.1 | 0.00 | 0.00 | 0.00 | 47 | 1014.4 |
| 20260509011153 | 7 | 309 | 6.4 | 17.7 | 0.00 | 0.00 | 0.00 | 53 | 1014.3 |
| 20260509010153 | 7 | 273 | 3.2 | 20.9 | 0.00 | 0.00 | 0.00 | 54 | 1014.3 |
| 20260509005153 | 7 | 322 | 11.3 | 20.9 | 0.00 | 0.00 | 0.00 | 51 | 1014.4 |
| 20260509004153 | 7 | 291 | 4.8 | 20.9 | 0.00 | 0.00 | 0.00 | 53 | 1014.5 |
| 20260509003153 | 7 | 288 | 11.3 | 22.5 | 0.00 | 0.00 | 0.00 | 51 | 1014.7 |
| 20260509002153 | 8 | 279 | 11.3 | 24.1 | 0.00 | 0.00 | 0.00 | 52 | 1014.7 |
| 20260509001153 | 8 | 266 | 11.3 | 24.1 | 0.00 | 0.00 | 0.00 | 42 | 1014.6 |
| 20260509000153 | 8 | 298 | 11.3 | 25.7 | 0.00 | 0.00 | 0.00 | 46 | 1014.6 |
| 20260508235236 | 8 | 270 | 14.5 | 25.7 | 0.00 | 0.00 | 0.00 | 36 | 1014.5 |
| 20260508235153 | 8 | 270 | 14.5 | 25.7 | 0.00 | 0.00 | 0.00 | 36 | 1014.5 |
| 20260508234153 | 8 | 276 | 9.7 | 27.4 | 0.00 | 0.00 | 0.00 | 42 | 1014.5 |
| 20260508233307 | 8 | 258 | 12.9 | 20.9 | 0.00 | 0.00 | 0.00 | 42 | 1014.5 |
| 20260508233153 | 8 | 258 | 12.9 | 20.9 | 0.00 | 0.00 | 0.00 | 42 | 1014.5 |
| 20260508232227 | 8 | 250 | 9.7 | 20.9 | 0.00 | 0.00 | 0.00 | 42 | 1014.5 |
| 20260508232152 | 8 | 250 | 9.7 | 20.9 | 0.00 | 0.00 | 0.00 | 42 | 1014.5 |
| 20260508231152 | 8 | 241 | 11.3 | 19.3 | 0.00 | 0.00 | 0.00 | 46 | 1014.5 |
| 20260508230152 | 7 | 263 | 3.2 | 12.9 | 0.00 | 0.00 | 0.00 | 54 | 1014.6 |
| 20260508225225 | 6 | 283 | 6.4 | 12.9 | 0.00 | 0.00 | 0.00 | 56 | 1014.6 |
| 20260508225152 | 6 | 283 | 6.4 | 12.9 | 0.00 | 0.00 | 0.00 | 56 | 1014.6 |
| 20260508224153 | 6 | 359 | 3.2 | 12.9 | 0.00 | 0.00 | 0.00 | 56 | 1014.6 |
| 20260508223152 | 6 | 36 | 4.8 | 12.9 | 0.00 | 0.00 | 0.00 | 54 | 1014.4 |
| 20260508222152 | 7 | 355 | 6.4 | 12.9 | 0.00 | 0.00 | 0.00 | 51 | 1014.5 |
| 20260508221152 | 7 | 14 | 3.2 | 11.3 | 0.00 | 0.00 | 0.00 | 49 | 1014.3 |
| 20260508220152 | 8 | 355 | 4.8 | 12.9 | 0.00 | 0.00 | 0.00 | 49 | 1014.5 |
| 20260508215152 | 8 | 285 | 1.6 | 8.0 | 0.00 | 0.00 | 0.00 | 49 | 1014.4 |
| 20260508214152 | 8 | 289 | 3.2 | 8.0 | 0.00 | 0.00 | 0.00 | 50 | 1014.4 |
| 20260508213152 | 8 | 353 | 1.6 | 8.0 | 0.00 | 0.00 | 0.00 | 49 | 1014.5 |
| 20260508212152 | 8 | 0 | 0.0 | 4.8 | 0.00 | 0.00 | 0.00 | 52 | 1014.4 |
| 20260508211152 | 8 | 298 | 4.8 | 8.0 | 0.00 | 0.00 | 0.00 | 53 | 1014.5 |
| 20260508210152 | 9 | 344 | 1.6 | 8.0 | 0.00 | 0.00 | 0.00 | 50 | 1014.5 |
| 20260508205152 | 9 | 303 | 1.6 | 9.7 | 0.00 | 0.00 | 0.00 | 49 | 1014.6 |
| 20260508204152 | 9 | 273 | 1.6 | 11.3 | 0.00 | 0.00 | 0.00 | 51 | 1014.5 |
| 20260508203152 | 9 | 266 | 3.2 | 9.7 | 0.00 | 0.00 | 0.00 | 44 | 1014.4 |
| 20260508202152 | 8 | 268 | 3.2 | 8.0 | 0.00 | 0.00 | 0.00 | 51 | 1014.3 |
| 20260508201233 | 8 | 306 | 3.2 | 9.7 | 0.00 | 0.00 | 0.00 | 56 | 1014.4 |
| 20260508201152 | 8 | 306 | 3.2 | 9.7 | 0.00 | 0.00 | 0.00 | 56 | 1014.4 |
| 20260508200152 | 8 | 283 | 4.8 | 12.9 | 0.00 | 0.00 | 0.00 | 53 | 1014.5 |
| 20260508195152 | 9 | 278 | 3.2 | 8.0 | 0.00 | 0.00 | 0.00 | 50 | 1014.5 |
| 20260508194152 | 8 | 301 | 1.6 | 11.3 | 0.00 | 0.00 | 0.00 | 41 | 1014.4 |
| 20260508193229 | 8 | 283 | 3.2 | 9.7 | 0.00 | 0.00 | 0.00 | 1014.4 | |
| 20260508193152 | 8 | 283 | 3.2 | 9.7 | 0.00 | 0.00 | 0.00 | 1014.4 |